NFC55L EDDP-LGAV

Flight info

Callsign NFC55L
Flight time N/A
Altitude 35000
Route DRN2Q/08L DRN Z21 OMELO DCT EVIKU DCT PEPIK DCT XOMBA DCT KEROP DCT XENIT DCT IBISI DCT MAKED DCT SKP UM749 ROPOX ROPOX1Q
Aircraft B77L/H-SDE1E2E3FGHIJ2J3J4J5M1RWXY/LB1D1

Departure

Time 2026-05-06 18:21
Airport Leipzig/Halle Airport (EDDP)

Arrival

Time N/A
Airport Athens Eleftherios Venizelos International Airport (LGAV)
Time Latitude Longitude Altitude Speed Heading
2026-05-06 17:51 51.40935 12.24328 468 ft 0 kts 85°
2026-05-06 18:12 51.40935 12.24323 468 ft 2 kts 85°
2026-05-06 18:12 51.40933 12.24294 470 ft 3 kts 85°
2026-05-06 18:12 51.40932 12.24262 467 ft 3 kts 85°
2026-05-06 18:12 51.40930 12.24230 467 ft 3 kts 85°
2026-05-06 18:13 51.40929 12.24197 467 ft 3 kts 85°
2026-05-06 18:13 51.40928 12.24185 467 ft 0 kts 85°
2026-05-06 18:16 51.40929 12.24190 467 ft 4 kts 77°
2026-05-06 18:16 51.41005 12.24217 473 ft 15 kts 356°
2026-05-06 18:16 51.41068 12.24108 473 ft 16 kts 270°
2026-05-06 18:16 51.41066 12.23934 478 ft 16 kts 265°
2026-05-06 18:17 51.41056 12.23759 482 ft 17 kts 265°
2026-05-06 18:17 51.41045 12.23544 476 ft 22 kts 265°
2026-05-06 18:17 51.41035 12.23301 478 ft 22 kts 266°
2026-05-06 18:17 51.41024 12.23060 480 ft 23 kts 265°
2026-05-06 18:18 51.41010 12.22782 477 ft 25 kts 265°
2026-05-06 18:18 51.40998 12.22506 467 ft 25 kts 265°
2026-05-06 18:18 51.41037 12.22309 468 ft 18 kts 324°
2026-05-06 18:18 51.41067 12.22123 470 ft 18 kts 266°
2026-05-06 18:19 51.41058 12.21916 472 ft 20 kts 266°
2026-05-06 18:19 51.41047 12.21682 471 ft 25 kts 265°
2026-05-06 18:19 51.41032 12.21366 463 ft 30 kts 265°
2026-05-06 18:19 51.41016 12.21040 452 ft 31 kts 265°
2026-05-06 18:20 51.41000 12.20699 434 ft 26 kts 265°
2026-05-06 18:20 51.41037 12.20487 430 ft 18 kts 346°
2026-05-06 18:20 51.41151 12.20551 431 ft 18 kts 48°
2026-05-06 18:20 51.41175 12.20774 446 ft 35 kts 85°
2026-05-06 18:21 51.41209 12.21539 467 ft 101 kts 85°
2026-05-06 18:21 51.41279 12.22985 476 ft 157 kts 85°
2026-05-06 18:21 51.41367 12.24830 819 ft 168 kts 84°
2026-05-06 18:21 51.41448 12.26685 1482 ft 163 kts 84°
2026-05-06 18:22 51.41524 12.28494 2101 ft 167 kts 86°
2026-05-06 18:22 51.41613 12.30449 2377 ft 190 kts 86°
2026-05-06 18:22 51.41716 12.32687 2630 ft 214 kts 86°
2026-05-06 18:22 51.41831 12.35217 2835 ft 241 kts 86°
2026-05-06 18:23 51.41959 12.38003 3287 ft 258 kts 86°
2026-05-06 18:23 51.42094 12.40919 3961 ft 266 kts 86°
2026-05-06 18:23 51.42232 12.43897 4742 ft 269 kts 86°
2026-05-06 18:23 51.42370 12.46889 5552 ft 272 kts 86°
2026-05-06 18:24 51.42509 12.49955 6231 ft 279 kts 86°
2026-05-06 18:24 51.42650 12.53087 6907 ft 284 kts 86°
2026-05-06 18:24 51.42681 12.56254 7523 ft 286 kts 102°
2026-05-06 18:24 51.41893 12.59165 8107 ft 285 kts 125°
2026-05-06 18:25 51.40805 12.61855 8806 ft 289 kts 125°
2026-05-06 18:25 51.39713 12.64570 9588 ft 291 kts 126°
2026-05-06 18:25 51.38609 12.67323 10207 ft 299 kts 126°
2026-05-06 18:25 51.37439 12.70235 10412 ft 323 kts 125°
2026-05-06 18:26 51.36177 12.73380 10629 ft 348 kts 125°
2026-05-06 18:26 51.34829 12.76751 10875 ft 370 kts 125°
2026-05-06 18:26 51.33427 12.80268 11503 ft 380 kts 125°
2026-05-06 18:26 51.32011 12.83824 12328 ft 386 kts 125°
2026-05-06 18:27 51.30563 12.87459 13277 ft 390 kts 125°
2026-05-06 18:27 51.29100 12.91131 14131 ft 393 kts 125°
2026-05-06 18:27 51.27617 12.94840 14734 ft 398 kts 125°
2026-05-06 18:27 51.26120 12.98581 14769 ft 401 kts 125°
2026-05-06 18:28 51.24620 13.02323 14776 ft 400 kts 125°
2026-05-06 18:28 51.23122 13.06055 14786 ft 400 kts 125°
2026-05-06 18:28 51.21610 13.09814 15467 ft 403 kts 125°
2026-05-06 18:28 51.20096 13.13575 15785 ft 406 kts 125°
2026-05-06 18:29 51.18572 13.17353 15766 ft 405 kts 126°
2026-05-06 18:29 51.17049 13.21123 15768 ft 403 kts 126°
2026-05-06 18:29 51.15545 13.24882 15773 ft 404 kts 125°
2026-05-06 18:29 51.14035 13.28691 16392 ft 407 kts 125°
2026-05-06 18:30 51.12521 13.32517 17251 ft 410 kts 125°
2026-05-06 18:30 51.10994 13.36368 18052 ft 413 kts 125°
2026-05-06 18:30 51.09448 13.40255 18709 ft 418 kts 126°
2026-05-06 18:30 51.07885 13.44180 19367 ft 422 kts 126°
2026-05-06 18:31 51.06304 13.48141 20033 ft 426 kts 126°
2026-05-06 18:31 51.04706 13.52143 20677 ft 430 kts 126°
2026-05-06 18:31 51.03091 13.56176 21310 ft 434 kts 126°
2026-05-06 18:31 51.01461 13.60240 21955 ft 439 kts 126°
2026-05-06 18:32 50.99816 13.64345 22590 ft 443 kts 126°
2026-05-06 18:32 50.98159 13.68483 23220 ft 447 kts 126°
2026-05-06 18:32 50.96482 13.72673 23755 ft 450 kts 126°
2026-05-06 18:32 50.94797 13.76875 24270 ft 454 kts 127°
2026-05-06 18:33 50.93078 13.81107 24776 ft 456 kts 128°
2026-05-06 18:33 50.91188 13.85146 25286 ft 457 kts 132°
2026-05-06 18:33 50.89260 13.89091 25786 ft 461 kts 131°
2026-05-06 18:33 50.87310 13.93141 26282 ft 464 kts 132°
2026-05-06 18:34 50.85346 13.97216 26731 ft 468 kts 132°
2026-05-06 18:34 50.83366 14.01324 26747 ft 470 kts 132°
2026-05-06 18:34 50.81377 14.05452 26998 ft 473 kts 132°
2026-05-06 18:34 50.79379 14.09602 27522 ft 475 kts 132°
2026-05-06 18:35 50.77375 14.13773 28064 ft 477 kts 132°
2026-05-06 18:35 50.75367 14.17960 28469 ft 481 kts 132°
2026-05-06 18:35 50.73337 14.22197 28870 ft 485 kts 132°
2026-05-06 18:35 50.71294 14.26468 29222 ft 489 kts 132°
2026-05-06 18:36 50.69237 14.30762 29616 ft 491 kts 132°
2026-05-06 18:36 50.67176 14.35066 30082 ft 490 kts 132°
2026-05-06 18:36 50.65121 14.39361 30579 ft 489 kts 132°
2026-05-06 18:36 50.63080 14.43633 31033 ft 488 kts 132°
2026-05-06 18:37 50.61066 14.47858 31430 ft 488 kts 132°
2026-05-06 18:37 50.59684 14.50758 31684 ft 489 kts 132°
2026-05-06 18:37 50.56990 14.56423 32224 ft 489 kts 132°
2026-05-06 18:37 50.54957 14.60705 32619 ft 488 kts 132°
2026-05-06 18:38 50.53110 14.64606 32976 ft 488 kts 132°
2026-05-06 18:38 50.51080 14.68902 33351 ft 488 kts 132°
2026-05-06 18:38 50.49059 14.73189 33731 ft 488 kts 132°
2026-05-06 18:38 50.47043 14.77481 34060 ft 487 kts 132°
2026-05-06 18:39 50.45034 14.81764 34403 ft 486 kts 132°
2026-05-06 18:39 50.43051 14.85993 34704 ft 487 kts 132°
2026-05-06 18:40 50.37010 14.98847 34754 ft 487 kts 133°
2026-05-06 18:40 50.32496 15.06552 34752 ft 476 kts 143°
2026-05-06 18:41 50.27475 15.13300 34761 ft 479 kts 146°
2026-05-06 18:41 50.22323 15.20015 34761 ft 485 kts 146°
2026-05-06 18:42 50.17182 15.26870 34746 ft 485 kts 145°
2026-05-06 18:42 50.12088 15.33757 34750 ft 484 kts 145°
2026-05-06 18:43 50.06996 15.40640 34755 ft 484 kts 145°
2026-05-06 18:43 50.01910 15.47488 34763 ft 485 kts 145°
2026-05-06 18:44 49.96828 15.54304 34769 ft 485 kts 146°
2026-05-06 18:44 49.91717 15.61138 34766 ft 484 kts 146°
2026-05-06 18:45 49.86607 15.67953 34770 ft 484 kts 146°
2026-05-06 18:45 49.82359 15.73600 34757 ft 483 kts 146°
2026-05-06 18:46 49.77251 15.80373 34751 ft 485 kts 146°
2026-05-06 18:46 49.71223 15.88331 34751 ft 494 kts 146°
2026-05-06 18:47 49.65977 15.95245 34745 ft 498 kts 146°
2026-05-06 18:47 49.61580 16.01028 34737 ft 499 kts 146°
2026-05-06 18:48 49.56291 16.07967 34726 ft 498 kts 146°
2026-05-06 18:48 49.50146 16.15998 34730 ft 498 kts 146°
2026-05-06 18:49 49.45711 16.21775 34729 ft 499 kts 146°
2026-05-06 18:49 49.40413 16.28657 34737 ft 501 kts 146°
2026-05-06 18:50 49.35090 16.35551 34736 ft 502 kts 146°
2026-05-06 18:50 49.29749 16.42452 34734 ft 502 kts 146°
2026-05-06 18:51 49.24424 16.49308 34735 ft 504 kts 146°
2026-05-06 18:51 49.19051 16.56208 34732 ft 505 kts 146°
2026-05-06 18:52 49.13660 16.63113 34739 ft 505 kts 146°
2026-05-06 18:52 49.08273 16.69991 34746 ft 505 kts 146°
2026-05-06 18:53 49.02873 16.76864 34743 ft 506 kts 146°
2026-05-06 18:53 48.97457 16.83738 34746 ft 506 kts 146°
2026-05-06 18:54 48.92046 16.90586 34754 ft 506 kts 146°
2026-05-06 18:54 48.86624 16.97430 34753 ft 506 kts 146°
2026-05-06 18:55 48.81215 17.04239 34753 ft 505 kts 146°
2026-05-06 18:55 48.75679 17.10630 34750 ft 501 kts 150°
2026-05-06 18:56 48.69968 17.16635 34765 ft 500 kts 150°
2026-05-06 18:56 48.64248 17.22620 34762 ft 499 kts 150°
2026-05-06 18:57 48.58547 17.28643 34770 ft 500 kts 150°
2026-05-06 18:57 48.52864 17.34671 34775 ft 500 kts 150°
2026-05-06 18:58 48.47173 17.40698 34777 ft 500 kts 150°
2026-05-06 18:58 48.41466 17.46720 34779 ft 500 kts 150°
2026-05-06 18:59 48.35794 17.52686 34782 ft 500 kts 149°
2026-05-06 18:59 48.30088 17.58672 34783 ft 500 kts 149°
2026-05-06 19:00 48.24373 17.64649 34799 ft 500 kts 149°
2026-05-06 19:00 48.18667 17.70601 34807 ft 500 kts 149°
2026-05-06 19:01 48.12949 17.76548 34806 ft 500 kts 149°
2026-05-06 19:01 48.07245 17.82465 34796 ft 501 kts 149°
2026-05-06 19:02 48.01514 17.88394 34819 ft 501 kts 149°
2026-05-06 19:02 47.95782 17.94307 34830 ft 501 kts 149°
2026-05-06 19:03 47.90038 18.00217 34833 ft 501 kts 149°
2026-05-06 19:03 47.84298 18.06107 34842 ft 500 kts 149°
2026-05-06 19:04 47.78570 18.11968 34849 ft 500 kts 149°
2026-05-06 19:04 47.72870 18.17784 34852 ft 499 kts 150°